Weather History for Fort Myers, FL

Change the Weather History Date:

Thursday, April 18, 2013

  Actual Average Record
Temperature  
Mean Temperature 81 °F 74 °F  
Max Temperature 91 °F 85 °F 95 °F (1944)
Min Temperature 71 °F 63 °F 49 °F (1956)
Degree Days  
Heating Degree Days 0 0  
Month to date heating degree days 0 0  
Since 1 July heating degree days 201 284  
Cooling Degree Days 16 9  
Month to date cooling degree days 213 146  
Year to date cooling degree days 595 507  
Growing Degree Days 30 (Base 50)    
Moisture  
Dew Point 68 °F    
Average Humidity 70    
Maximum Humidity 93    
Minimum Humidity 44    
Precipitation  
Precipitation 0.41 in 0.07 in 1.75 in (1916)
Month to date precipitation 1.85 1.35  
Year to date precipitation 5.11 8.32  
Sea Level Pressure  
Sea Level Pressure 30.00 in    
Wind  
Wind Speed 7 mph (SE)    
Max Wind Speed 21 mph    
Max Gust Speed 26 mph    
Visibility 9 miles    
Events Rain    
T = Trace of Precipitation, MM = Missing Value Source: NWS Daily Summary

Daily Weather History Graph

Daily Weather History Graph

Search for Another Location

Airport:

Trip Planner

Search our weather history database for the weather conditions in past years. The results will help you decide how hot, cold, wet, or windy it might be!

Date:

Astronomy

Apr. 18, 2013 Rise Set
Actual Time 7:00 AM EDT 7:53 PM EDT
Civil Twilight 6:36 AM EDT 8:16 PM EDT
Nautical Twilight 6:08 AM EDT 8:45 PM EDT
Astronomical Twilight 5:40 AM EDT 9:13 PM EDT
Moon 1:17 PM EDT (4/18) 1:59 AM EDT (4/18)
Length of Visible Light 13h 40m
Length of Day
12h 52m
First Quarter, 51% of the Moon is Illuminated
Apr 18
First Quarter
Apr 25
Full
May 2
Last Quarter
May 9
New
May 18
First Quarter

Hourly Weather History & Observations

Time (EDT) Temp. Heat Index Dew Point Humidity Pressure Visibility Wind Dir Wind Speed Gust Speed Precip Events Conditions
12:53 AM 75.0 °F - 64.0 °F 69% 30.05 in 10.0 mi East 6.9 mph - N/A   Overcast
1:53 AM 73.9 °F - 64.0 °F 71% 30.02 in 10.0 mi ESE 9.2 mph - N/A   Overcast
2:53 AM 73.9 °F - 64.0 °F 71% 30.00 in 10.0 mi ESE 6.9 mph - N/A   Overcast
3:53 AM 73.0 °F - 63.0 °F 71% 30.00 in 10.0 mi East 5.8 mph - N/A   Overcast
4:53 AM 73.0 °F - 64.0 °F 73% 30.00 in 10.0 mi East 4.6 mph - N/A   Overcast
5:53 AM 72.0 °F - 64.0 °F 76% 30.01 in 10.0 mi East 3.5 mph - N/A   Overcast
6:53 AM 71.1 °F - 64.0 °F 78% 30.02 in 10.0 mi ENE 3.5 mph - N/A   Overcast
7:53 AM 72.0 °F - 64.9 °F 78% 30.04 in 10.0 mi East 5.8 mph - N/A   Clear
8:53 AM 75.0 °F - 66.9 °F 76% 30.04 in 10.0 mi ESE 6.9 mph - N/A   Mostly Cloudy
9:53 AM 81.0 °F 83.8 °F 68.0 °F 65% 30.05 in 10.0 mi ESE 12.7 mph 18.4 mph N/A   Clear
10:53 AM 82.9 °F 85.0 °F 66.0 °F 56% 30.04 in 10.0 mi SSE 12.7 mph - N/A   Clear
11:53 AM 87.1 °F 89.2 °F 66.0 °F 49% 30.02 in 10.0 mi SSE 12.7 mph 16.1 mph N/A   Partly Cloudy
12:53 PM 89.1 °F 91.3 °F 66.0 °F 46% 30.01 in 10.0 mi South 11.5 mph - N/A   Scattered Clouds
1:53 PM 89.1 °F 91.0 °F 64.9 °F 45% 29.99 in 10.0 mi South 9.2 mph - N/A   Scattered Clouds
2:53 PM 89.1 °F 92.1 °F 66.9 °F 48% 29.97 in 10.0 mi WSW 10.4 mph - N/A   Scattered Clouds
3:53 PM 89.1 °F 93.7 °F 69.1 °F 52% 29.96 in 10.0 mi SW 11.5 mph - N/A   Mostly Cloudy
4:53 PM 87.1 °F 92.0 °F 70.0 °F 57% 29.95 in 10.0 mi SSW 11.5 mph - N/A   Scattered Clouds
5:53 PM 81.0 °F 86.2 °F 73.9 °F 79% 29.95 in 4.0 mi SW 5.8 mph - 0.12 in Rain Light Rain
6:53 PM 82.9 °F 87.5 °F 71.1 °F 67% 29.95 in 10.0 mi SSW 6.9 mph - N/A   Scattered Clouds
7:09 PM 77.0 °F - 71.6 °F 83% 29.95 in 0.8 mi South 11.5 mph 26.5 mph 0.11 in Rain Heavy Rain
7:20 PM 77.0 °F - 71.6 °F 83% 29.95 in 6.0 mi South 6.9 mph - 0.27 in Rain Light Rain
7:53 PM 77.0 °F - 72.0 °F 84% 29.96 in 6.0 mi SW 5.8 mph - 0.27 in   Haze
8:53 PM 78.1 °F - 73.0 °F 84% 29.98 in 10.0 mi Calm Calm - N/A   Overcast
9:53 PM 77.0 °F - 73.0 °F 88% 30.00 in 10.0 mi East 3.5 mph - 0.02 in Rain Light Rain
10:53 PM 75.9 °F - 72.0 °F 87% 30.01 in 10.0 mi SE 4.6 mph - 0.00 in   Clear
11:53 PM 73.9 °F - 71.1 °F 91% 30.02 in 10.0 mi ESE 3.5 mph - N/A   Clear